カタログに戻る

ATLAS 5 CENTAUR R/B

運用中HEO
NORAD 39207·ROCKET BODY·🇺🇸 United States

打ち上げ Jul 19, 2013 から Cape Canaveral Space Force Station

Loading…

次のパス (今後24時間)

TLE

最新Source: Space-Track

元期: Sep 14, 2026, 04:58 UTC

1 39207U 13036B   26257.20756764 -.00000107  00000-0  00000-0 0  9992
2 39207  17.7571 139.4553 6102511  38.7171 352.1984  2.09943620100912

AllMySatでATLAS 5 CENTAUR R/Bをリアルタイム追跡

Download on the App Store